Location: Arrodets-la-Barthe
(43.0306°N, 0.2829°E)
Time: 07:01:47
(UTC+00:00)

Cosmos 2278 - Pass Details

Date: 05 June 2022
Orbit: 838 x 854 km, 71.1° (Epoch: 03 July)

Event Time Altitude Azimuth Distance (km) Brightness Sun altitude
Rises 20:57:09 0° 253° (WSW) 3,395 7.2 -12.4°
Reaches altitude 10° 21:00:30 10° 273° (W) 2,467 6.8 -12.8°
Maximum altitude 21:04:07 17° 314° (NW) 2,013 6.9 -13.2°
Drops below altitude 10° 21:07:47 10° 354° (N) 2,482 7.0 -13.6°
Sets 21:11:11 0° 14° (NNE) 3,425 7.4 -14.0°
